Norwood, MA

3:25 PM EDT on September 30, 2016 (GMT -0400)
Norwood Memorial

Weather History for KOWD - December, 2012

Change the Weather History Date:

Monday, December 10, 2012

  Actual Average Record
Temperature  
Mean Temperature 52 °F -  
Max Temperature 62 °F 41 °F 63 °F (2008)
Min Temperature 42 °F 23 °F 1 °F (2000)
Degree Days  
Heating Degree Days 13    
Growing Degree Days 2 (Base 50)    
Moisture  
Dew Point 51 °F    
Average Humidity 92    
Maximum Humidity 100    
Minimum Humidity 87    
Precipitation  
Precipitation 0.47 in - - ()
Sea Level Pressure  
Sea Level Pressure 29.74 in    
Wind  
Wind Speed 4 mph (South)    
Max Wind Speed 10 mph    
Max Gust Speed 16 mph    
Visibility 6 miles    
Events Rain    
Averages and records for this station are not official NWS values.
T = Trace of Precipitation, MM = Missing Value Source: NWS Daily Summary

Daily Weather History Graph

Daily Weather History Graph

Search for Another Location

Airport or City:

Trip Planner

Search our weather history database for the weather conditions in past years. The results will help you decide how hot, cold, wet, or windy it might be!

Date:

Astronomy

Dec. 10, 2012 Rise Set
Actual Time 7:02 AM EST 4:12 PM EST
Civil Twilight 6:31 AM EST 4:44 PM EST
Nautical Twilight 5:55 AM EST 5:19 PM EST
Astronomical Twilight 5:21 AM EST 5:53 PM EST
Moon 3:40 AM EST (12/10) 2:01 PM EST (12/10)
Length of Visible Light 10h 13m
Length of Day
9h 09m
Waning Crescent, 10% of the Moon is Illuminated
Dec 10
Waning Crescent
Dec 13
New
Dec 20
First Quarter
Dec 28
Full
Jan 4
Last Quarter

Hourly Weather History & Observations

Time (EST) Temp. Windchill Dew Point Humidity Pressure Visibility Wind Dir Wind Speed Gust Speed Precip Events Conditions
12:53 AM 42.1 °F 39.2 °F 39.9 °F 92% 30.11 in 5.0 mi NE 4.6 mph - 0.05 in Rain Light Rain
1:16 AM 42.8 °F 40.1 °F 39.2 °F 87% 30.10 in 3.0 mi ENE 4.6 mph - 0.05 in Rain Rain
1:33 AM 42.8 °F 40.1 °F 39.2 °F 87% 30.09 in 4.0 mi NE 4.6 mph - 0.07 in Rain Light Rain
1:53 AM 42.1 °F 37.7 °F 41.0 °F 96% 30.07 in 4.0 mi East 6.9 mph - 0.10 in Rain Light Rain
2:20 AM 42.8 °F 40.1 °F 41.0 °F 93% 30.06 in 4.0 mi ENE 4.6 mph - 0.04 in Rain Light Rain
2:34 AM 42.8 °F 39.3 °F 41.0 °F 93% 30.04 in 3.0 mi ENE 5.8 mph - 0.07 in Rain Light Rain
2:41 AM 42.8 °F 39.3 °F 41.0 °F 93% 30.03 in 6.0 mi East 5.8 mph - 0.07 in Rain Light Rain
2:53 AM 43.0 °F 40.3 °F 42.1 °F 97% 30.02 in 10.0 mi East 4.6 mph - 0.07 in   Overcast
3:53 AM 45.0 °F - 43.0 °F 93% 29.96 in 6.0 mi Calm Calm - 0.03 in   Overcast
4:53 AM 45.0 °F - 44.1 °F 97% 29.91 in 7.0 mi Calm Calm - 0.00 in   Overcast
5:53 AM 46.0 °F - 44.1 °F 93% 29.87 in 3.0 mi Calm Calm - 0.01 in Rain Light Rain
6:51 AM 44.6 °F - 44.6 °F 100% 29.84 in 2.0 mi Calm Calm - 0.03 in Rain Light Rain
6:53 AM 45.0 °F - 44.1 °F 97% 29.84 in 2.0 mi Calm Calm - 0.03 in Rain Light Rain
7:21 AM 46.4 °F - 44.6 °F 93% 29.82 in 4.0 mi Calm Calm - 0.02 in   Overcast
7:53 AM 46.9 °F - 45.0 °F 93% 29.81 in 3.0 mi Calm Calm - 0.03 in   Overcast
8:53 AM 46.9 °F - 45.0 °F 93% 29.81 in 3.0 mi West 3.5 mph - N/A   Overcast
9:48 AM 48.2 °F - 46.4 °F 93% 29.79 in 1.5 mi Calm Calm - N/A   Overcast
9:53 AM 48.0 °F - 46.0 °F 93% 29.78 in 1.5 mi Calm Calm - N/A   Overcast
11:00 AM 50.0 °F - 48.2 °F 94% 29.74 in 5.0 mi Calm Calm - N/A   Overcast
11:09 AM 51.8 °F - 48.2 °F 88% 29.74 in 1.5 mi Calm Calm - N/A   Overcast
11:53 AM 57.9 °F - 57.0 °F 97% 29.70 in 1.5 mi South 6.9 mph - N/A   Overcast
12:42 PM 60.8 °F - 57.2 °F 88% 29.67 in 6.0 mi South 6.9 mph - N/A   Overcast
12:53 PM 61.0 °F - 57.9 °F 90% 29.65 in 6.0 mi SSW 8.1 mph - N/A   Overcast
1:53 PM 61.0 °F - 57.9 °F 90% 29.63 in 7.0 mi SSW 10.4 mph 16.1 mph 0.03 in Rain Light Rain
2:00 PM 60.8 °F - 59.0 °F 94% 29.63 in 6.0 mi SSW 6.9 mph - 0.01 in Rain Light Rain
2:28 PM 62.6 °F - 59.0 °F 88% 29.62 in 2.0 mi SSW 8.1 mph - 0.06 in Rain Light Rain
2:36 PM 62.6 °F - 59.0 °F 88% 29.61 in 6.0 mi South 9.2 mph - 0.06 in   Overcast
2:53 PM 62.1 °F - 59.0 °F 90% 29.61 in 6.0 mi South 8.1 mph - 0.06 in   Overcast
3:02 PM 62.6 °F - 59.0 °F 88% 29.61 in 10.0 mi South 6.9 mph - 0.00 in Rain Light Rain
3:53 PM 61.0 °F - 59.0 °F 93% 29.60 in 10.0 mi SSW 6.9 mph - 0.00 in   Overcast
4:53 PM 61.0 °F - 57.9 °F 90% 29.57 in 10.0 mi South 6.9 mph - N/A   Overcast
5:15 PM 60.8 °F - 57.2 °F 88% 29.56 in 7.0 mi SSW 6.9 mph - 0.02 in Rain Light Rain
5:28 PM 60.8 °F - 57.2 °F 88% 29.56 in 4.0 mi South 6.9 mph - 0.04 in Rain Light Rain
5:53 PM 60.1 °F - 57.9 °F 93% 29.55 in 4.0 mi South 5.8 mph - 0.05 in Rain Light Rain
6:53 PM 60.1 °F - 57.9 °F 93% 29.52 in 10.0 mi SSW 3.5 mph - 0.01 in   Overcast
7:36 PM 60.8 °F - 57.2 °F 88% 29.51 in 10.0 mi SSW 4.6 mph - N/A   Overcast
7:53 PM 60.1 °F - 57.0 °F 90% 29.50 in 10.0 mi SSW 4.6 mph - N/A   Overcast
8:26 PM 59.0 °F - 57.2 °F 94% 29.50 in 10.0 mi SW 5.8 mph - N/A   Overcast
8:53 PM 59.0 °F - 57.0 °F 93% 29.50 in 10.0 mi WSW 5.8 mph - N/A   Overcast
9:53 PM 57.9 °F - 55.0 °F 90% 29.50 in 10.0 mi Variable 4.6 mph - N/A   Scattered Clouds
10:53 PM 57.9 °F - 55.0 °F 90% 29.51 in 10.0 mi SW 4.6 mph - N/A   Mostly Cloudy
11:53 PM 57.9 °F - 54.0 °F 87% 29.52 in 10.0 mi SW 6.9 mph - N/A   Overcast